Klamath Falls, OR

11:09 AM PDT on June 27, 2017 (GMT -0700)
Klamath Falls International

Weather History for KLMT - October, 2011

Change the Weather History Date:

Sunday, October 2, 2011

  Actual Average Record
Temperature  
Mean Temperature 51 °F 52 °F  
Max Temperature 65 °F 70 °F 86 °F (1952)
Min Temperature 37 °F 34 °F 23 °F (2016)
Degree Days  
Heating Degree Days 14 13  
Month to date heating degree days 23 25  
Since 1 July heating degree days 246 381  
Cooling Degree Days 0 0  
Month to date cooling degree days 0 0  
Year to date cooling degree days 104 169  
Moisture  
Dew Point 36 °F    
Average Humidity 60    
Maximum Humidity 93    
Minimum Humidity 30    
Precipitation  
Precipitation 0.00 in 0.00 in 0.56 in (1937)
Month to date precipitation 0.00 0.01  
Year to date precipitation 5.60 10.28  
Sea Level Pressure  
Sea Level Pressure 29.96 in    
Wind  
Wind Speed 12 mph (South)    
Max Wind Speed 24 mph    
Max Gust Speed 29 mph    
Visibility 10 miles    
Events      
T = Trace of Precipitation, MM = Missing Value Source: NWS Daily Summary

Daily Weather History Graph

Daily Weather History Graph

Search for Another Location

Airport or City:

Trip Planner

Search our weather history database for the weather conditions in past years. The results will help you decide how hot, cold, wet, or windy it might be!

Date:

Astronomy

Oct. 02, 2011 Rise Set
Actual Time 7:04 AM PDT 6:47 PM PDT
Civil Twilight 6:36 AM PDT 7:14 PM PDT
Nautical Twilight 6:04 AM PDT 7:47 PM PDT
Astronomical Twilight 5:31 AM PDT 8:20 PM PDT
Moon 1:22 PM PDT (10/2) 10:45 PM PDT (10/2)
Length of Visible Light 12h 37m
Length of Day
11h 42m
Waxing Crescent, 36% of the Moon is Illuminated
Oct 2
Waxing Crescent
Oct 3
First Quarter
Oct 11
Full
Oct 19
Last Quarter
Oct 26
New

Hourly Weather History & Observations

Time (PDT) Temp. Windchill Dew Point Humidity Pressure Visibility Wind Dir Wind Speed Gust Speed Precip Events Conditions
12:53 AM 48.9 °F - 39.9 °F 71% 29.96 in 10.0 mi South 5.8 mph - N/A   Mostly Cloudy
1:53 AM 44.1 °F 41.5 °F 37.9 °F 79% 29.99 in 10.0 mi NW 4.6 mph - N/A   Clear
2:53 AM 44.6 °F - 39.2 °F 81% 30.03 in 10.0 mi Calm Calm - N/A   Scattered Clouds
3:53 AM 39.9 °F - 37.0 °F 89% 29.98 in 10.0 mi Calm Calm - N/A   Clear
4:53 AM 43.0 °F 40.3 °F 39.0 °F 86% 29.98 in 10.0 mi SSE 4.6 mph - N/A   Partly Cloudy
5:53 AM 45.0 °F 39.7 °F 41.0 °F 86% 29.98 in 10.0 mi SSE 10.4 mph - N/A   Clear
6:00 AM 44.6 °F 40.7 °F 41.0 °F 87% 30.03 in 10.0 mi SSE 6.9 mph - N/A   Partly Cloudy
6:53 AM 37.4 °F 34.9 °F 35.6 °F 93% 30.04 in 10.0 mi NW 3.5 mph - N/A   Partly Cloudy
7:53 AM 41.0 °F 38.0 °F 39.2 °F 93% 30.05 in 10.0 mi East 4.6 mph - N/A   Scattered Clouds
8:53 AM 48.2 °F - 41.0 °F 76% 30.05 in 10.0 mi SSE 3.5 mph - N/A   Mostly Cloudy
9:53 AM 53.1 °F - 41.0 °F 64% 30.00 in 10.0 mi SSE 9.2 mph - N/A   Mostly Cloudy
11:53 AM 60.1 °F - 37.0 °F 42% 29.96 in 10.0 mi South 15.0 mph - N/A   Mostly Cloudy
12:53 PM 60.1 °F - 34.0 °F 38% 29.95 in 10.0 mi South 18.4 mph 25.3 mph N/A   Mostly Cloudy
1:53 PM 62.1 °F - 34.0 °F 35% 29.94 in 10.0 mi South 15.0 mph - N/A   Mostly Cloudy
2:53 PM 64.0 °F - 33.1 °F 31% 29.91 in 10.0 mi South 18.4 mph 27.6 mph N/A   Mostly Cloudy
3:53 PM 64.0 °F - 32.0 °F 30% 29.91 in 10.0 mi South 16.1 mph - N/A   Mostly Cloudy
4:53 PM 62.1 °F - 30.9 °F 31% 29.89 in 10.0 mi South 21.9 mph - N/A   Mostly Cloudy
5:53 PM 57.9 °F - 30.9 °F 36% 29.89 in 10.0 mi South 19.6 mph 27.6 mph N/A   Mostly Cloudy
6:53 PM 55.9 °F - 30.0 °F 37% 29.92 in 10.0 mi South 17.3 mph - N/A   Overcast
7:53 PM 54.0 °F - 34.0 °F 47% 29.91 in 7.0 mi South 16.1 mph 25.3 mph N/A   Overcast
8:53 PM 53.1 °F - 34.0 °F 48% 29.90 in 7.0 mi South 19.6 mph 25.3 mph N/A   Mostly Cloudy
9:53 PM 51.8 °F - 35.6 °F 54% 29.95 in 7.0 mi SSE 10.4 mph - N/A   Mostly Cloudy
10:53 PM 52.0 °F - 36.0 °F 54% 29.88 in 10.0 mi South 15.0 mph 21.9 mph N/A   Overcast
11:53 PM 51.8 °F - 37.4 °F 58% 29.94 in 10.0 mi South 17.3 mph 25.3 mph N/A   Overcast